When you browse on this site, cookies collect data to enhance your experience and personalize the content and advertising you see.
Visit our Privacy Policy to learn more. By continuing to use the site, you agree to this use of cookies and data.
  • In Hungary
  • List of Countries
  • For 7 days
  • Water Temperature
  • Weather Map
  • News
  • Weather Widgets
  • user-avatar
    Login

    Hourly Weather Laamu Atholhu

    Today, 15 November, Friday

    Time Temperature Precipitation Wind Pressure Humidity
    00:00 +30°C° 0 mm 4 mps 757 mmHg 77%
    01:00 +30°C° 0 mm 3 mps 756 mmHg 77%
    02:00 +30°C° 0 mm 3 mps 756 mmHg 77%
    03:00 +30°C° 0 mm 3 mps 756 mmHg 76%
    04:00 +30°C° 0 mm 3 mps 756 mmHg 76%
    05:00 +30°C° 0 mm 2 mps 756 mmHg 75%
    06:00 +30°C° 0 mm 2 mps 757 mmHg 75%
    07:00 +30°C° 0 mm 2 mps 757 mmHg 75%
    08:00 +30°C° 0 mm 2 mps 758 mmHg 75%
    09:00 +30°C° 0 mm 2 mps 758 mmHg 75%
    10:00 +30°C° 0 mm 2 mps 758 mmHg 74%
    11:00 +30°C° 0 mm 2 mps 758 mmHg 74%
    12:00 +30°C° 0 mm 2 mps 757 mmHg 73%
    13:00 +30°C° 0 mm 2 mps 756 mmHg 72%
    14:00 +30°C° 0 mm 2 mps 756 mmHg 71%
    15:00 +30°C° 0.2 mm 2 mps 755 mmHg 71%
    16:00 +30°C° 0.2 mm 2 mps 755 mmHg 71%
    17:00 +30°C° 0.2 mm 1 mps 755 mmHg 71%
    18:00 +30°C° 1.2 mm 2 mps 756 mmHg 72%
    19:00 +30°C° 1.2 mm 2 mps 756 mmHg 73%
    20:00 +30°C° 1.2 mm 3 mps 757 mmHg 74%
    21:00 +30°C° 2 mm 3 mps 757 mmHg 75%
    22:00 +30°C° 2 mm 4 mps 757 mmHg 75%
    23:00 +30°C° 2 mm 4 mps 757 mmHg 76%

    Tomorrow, 16 November, Saturday

    Time Temperature Precipitation Wind Pressure Humidity
    00:00 +30°C° 0.3 mm 3 mps 757 mmHg 75%
    01:00 +30°C° 0.3 mm 3 mps 756 mmHg 75%
    02:00 +30°C° 0.3 mm 2 mps 756 mmHg 74%
    03:00 +30°C° 0.2 mm 2 mps 755 mmHg 73%
    04:00 +30°C° 0.2 mm 1 mps 755 mmHg 72%
    05:00 +30°C° 0.2 mm 1 mps 755 mmHg 71%
    06:00 +30°C° 0.6 mm 1 mps 756 mmHg 70%
    07:00 +30°C° 0.6 mm 1 mps 757 mmHg 70%
    08:00 +30°C° 0.6 mm 1 mps 757 mmHg 70%
    09:00 +31°C° 0.4 mm 1 mps 757 mmHg 69%
    10:00 +31°C° 0.4 mm 1 mps 757 mmHg 68%
    11:00 +31°C° 0.4 mm 1 mps 757 mmHg 68%
    12:00 +31°C° 1.9 mm 2 mps 756 mmHg 69%
    13:00 +30°C° 1.9 mm 3 mps 756 mmHg 71%
    14:00 +30°C° 1.9 mm 4 mps 755 mmHg 73%
    15:00 +30°C° 2.3 mm 4 mps 755 mmHg 75%
    16:00 +30°C° 2.3 mm 4 mps 755 mmHg 77%
    17:00 +29°C° 2.3 mm 5 mps 755 mmHg 80%
    18:00 +29°C° 0.2 mm 4 mps 756 mmHg 78%
    19:00 +29°C° 0.2 mm 3 mps 757 mmHg 77%
    20:00 +30°C° 0.2 mm 3 mps 757 mmHg 75%
    21:00 +30°C° 0.4 mm 3 mps 757 mmHg 76%
    22:00 +30°C° 0.4 mm 4 mps 757 mmHg 77%
    23:00 +30°C° 0.4 mm 5 mps 757 mmHg 77%

    Day after tomorrow, 17 November, Sunday

    Time Temperature Precipitation Wind Pressure Humidity
    00:00 +30°C° 0.7 mm 4 mps 756 mmHg 77%
    01:00 +30°C° 0.7 mm 4 mps 756 mmHg 77%
    02:00 +30°C° 0.7 mm 4 mps 755 mmHg 77%
    03:00 +30°C° 1.1 mm 4 mps 755 mmHg 77%
    04:00 +30°C° 1.1 mm 5 mps 756 mmHg 77%
    05:00 +30°C° 1.1 mm 6 mps 756 mmHg 77%
    06:00 +30°C° 1.4 mm 6 mps 756 mmHg 76%
    07:00 +30°C° 1.4 mm 6 mps 757 mmHg 76%
    08:00 +30°C° 1.4 mm 7 mps 758 mmHg 76%
    09:00 +30°C° 0.7 mm 6 mps 757 mmHg 76%
    10:00 +30°C° 0.7 mm 6 mps 757 mmHg 76%
    11:00 +30°C° 0.7 mm 6 mps 757 mmHg 76%
    12:00 +30°C° 0.5 mm 6 mps 756 mmHg 77%
    13:00 +30°C° 0.5 mm 6 mps 756 mmHg 78%
    14:00 +30°C° 0.5 mm 6 mps 755 mmHg 78%
    15:00 +30°C° 0.1 mm 6 mps 755 mmHg 79%
    16:00 +30°C° 0.1 mm 6 mps 755 mmHg 80%
    17:00 +30°C° 0.1 mm 5 mps 755 mmHg 80%
    18:00 +30°C° 0.2 mm 6 mps 756 mmHg 80%
    19:00 +30°C° 0.2 mm 6 mps 757 mmHg 81%
    20:00 +30°C° 0.2 mm 6 mps 757 mmHg 81%
    21:00 +30°C° 0.1 mm 6 mps 757 mmHg 80%
    22:00 +30°C° 0.1 mm 6 mps 757 mmHg 80%
    23:00 +30°C° 0.1 mm 6 mps 757 mmHg 80%

    18 November, Monday

    Time Temperature Precipitation Wind Pressure Humidity
    00:00 +30°C° 0.1 mm 6 mps 757 mmHg 79%
    01:00 +30°C° 0.1 mm 6 mps 756 mmHg 79%
    02:00 +30°C° 0.1 mm 6 mps 756 mmHg 78%
    03:00 +30°C° 0.1 mm 6 mps 756 mmHg 78%
    04:00 +30°C° 0.1 mm 6 mps 756 mmHg 77%
    05:00 +30°C° 0.1 mm 6 mps 757 mmHg 77%
    06:00 +30°C° 0 mm 6 mps 757 mmHg 77%
    07:00 +30°C° 0 mm 5 mps 758 mmHg 78%
    08:00 +30°C° 0 mm 5 mps 758 mmHg 78%
    09:00 +30°C° 0.1 mm 5 mps 758 mmHg 78%
    10:00 +30°C° 0.1 mm 5 mps 758 mmHg 78%
    11:00 +30°C° 0.1 mm 5 mps 758 mmHg 79%
    12:00 +30°C° 0.2 mm 5 mps 757 mmHg 79%
    13:00 +30°C° 0.2 mm 5 mps 756 mmHg 80%
    14:00 +30°C° 0.2 mm 5 mps 756 mmHg 80%
    15:00 +30°C° 0.1 mm 5 mps 756 mmHg 80%
    16:00 +30°C° 0.1 mm 5 mps 756 mmHg 80%
    17:00 +30°C° 0.1 mm 5 mps 756 mmHg 80%
    18:00 +30°C° 0.1 mm 5 mps 756 mmHg 80%
    19:00 +30°C° 0.1 mm 5 mps 757 mmHg 80%
    20:00 +30°C° 0.1 mm 5 mps 757 mmHg 80%
    21:00 +30°C° 0 mm 5 mps 757 mmHg 80%
    22:00 +30°C° 0 mm 5 mps 757 mmHg 80%
    23:00 +30°C° 0 mm 5 mps 757 mmHg 81%

    19 November, Tuesday

    Time Temperature Precipitation Wind Pressure Humidity
    00:00 +30°C° 0.1 mm 5 mps 757 mmHg 80%
    01:00 +30°C° 0.1 mm 4 mps 756 mmHg 80%
    02:00 +30°C° 0.1 mm 4 mps 755 mmHg 80%
    03:00 +30°C° 0 mm 4 mps 755 mmHg 80%
    04:00 +30°C° 0 mm 4 mps 756 mmHg 80%
    05:00 +30°C° 0 mm 4 mps 756 mmHg 80%
    06:00 +30°C° 0 mm 4 mps 756 mmHg 80%
    07:00 +30°C° 0 mm 4 mps 757 mmHg 79%
    08:00 +30°C° 0 mm 4 mps 757 mmHg 79%
    09:00 +30°C° 0 mm 4 mps 757 mmHg 78%
    10:00 +30°C° 0 mm 4 mps 757 mmHg 77%
    11:00 +30°C° 0 mm 4 mps 757 mmHg 77%
    12:00 +30°C° 0.1 mm 4 mps 756 mmHg 76%
    13:00 +30°C° 0.1 mm 4 mps 755 mmHg 76%
    14:00 +30°C° 0.1 mm 4 mps 755 mmHg 76%
    15:00 +30°C° 1 mm 4 mps 755 mmHg 76%
    16:00 +30°C° 1 mm 4 mps 755 mmHg 77%
    17:00 +30°C° 1 mm 4 mps 755 mmHg 77%
    18:00 +30°C° 0.2 mm 4 mps 755 mmHg 77%
    19:00 +30°C° 0.2 mm 5 mps 756 mmHg 76%
    20:00 +30°C° 0.2 mm 5 mps 756 mmHg 76%
    21:00 +30°C° 0 mm 5 mps 756 mmHg 76%
    22:00 +30°C° 0 mm 5 mps 756 mmHg 75%
    23:00 +30°C° 0 mm 5 mps 756 mmHg 75%

    20 November, Wednesday

    Time Temperature Precipitation Wind Pressure Humidity
    00:00 +30°C° 0.1 mm 5 mps 756 mmHg 76%
    01:00 +30°C° 0.1 mm 5 mps 755 mmHg 77%
    02:00 +30°C° 0.1 mm 4 mps 754 mmHg 78%
    03:00 +30°C° 0 mm 4 mps 755 mmHg 77%
    04:00 +30°C° 0 mm 4 mps 755 mmHg 77%
    05:00 +30°C° 0 mm 4 mps 755 mmHg 76%
    06:00 +30°C° 0 mm 4 mps 755 mmHg 76%
    07:00 +30°C° 0 mm 4 mps 756 mmHg 76%
    08:00 +30°C° 0 mm 4 mps 756 mmHg 76%
    09:00 +30°C° 0.1 mm 4 mps 756 mmHg 76%
    10:00 +30°C° 0.1 mm 4 mps 756 mmHg 76%
    11:00 +30°C° 0.1 mm 4 mps 756 mmHg 76%
    12:00 +30°C° 0.1 mm 4 mps 755 mmHg 75%
    13:00 +30°C° 0.1 mm 4 mps 755 mmHg 74%
    14:00 +30°C° 0.1 mm 4 mps 754 mmHg 73%
    15:00 +30°C° 0.1 mm 3 mps 754 mmHg 73%
    16:00 +30°C° 0.1 mm 3 mps 754 mmHg 72%
    17:00 +30°C° 0.1 mm 3 mps 754 mmHg 72%
    18:00 +30°C° 0 mm 3 mps 755 mmHg 72%
    19:00 +30°C° 0 mm 3 mps 755 mmHg 73%
    20:00 +30°C° 0 mm 3 mps 756 mmHg 73%
    21:00 +30°C° 0.1 mm 3 mps 756 mmHg 74%
    22:00 +30°C° 0.1 mm 3 mps 756 mmHg 75%
    23:00 +30°C° 0.1 mm 3 mps 756 mmHg 76%
    Show more